Location: Chikalgudem
(17.0095°N, 80.5956°E)
Time: 15:54:36
(UTC+00:00)

Daily predictions for brighter satellites

Satellite Brightness Start Highest point End
(mag) Time Altitude Azimuth Time Altitude Azimuth Time Altitude Azimuth
Atlas Centaur 2 4.4 12:29:45 10° SW 12:30:19 10° SW 12:30:54 10° SSW
Meteor 1-10 Rocket 4.3 12:24:49 10° S 12:30:39 73° E 12:36:22 10° N
Cosmos 1666 Rocket 3.7 12:26:51 10° N 12:31:08 53° E 12:35:21 10° SSE
Centaur D-1A AC-32 3.4 12:28:37 10° WNW 12:33:35 30° N 12:36:50 10° ENE
SL-27 R/B 4.4 12:33:19 10° ESE 12:34:46 12° E 12:36:08 10° ENE
Genesis I 3.2 12:32:07 10° SSW 12:35:50 60° ESE 12:39:40 10° NNE
CORIOLIS 4.4 12:35:30 10° S 12:40:51 79° WSW 12:46:16 10° NNW
Cosmos 1697 Rocket 3.5 12:39:12 10° NNW 12:44:40 55° WSW 12:50:07 10° S
deb Chang Zheng 4 4.2 12:40:58 10° SE 12:44:46 31° ENE 12:48:34 10° NNE
Cosmos 1666 2.5 12:41:39 10° N 12:45:20 78° E 12:49:02 10° S
SKYMED 2 4.3 12:44:03 10° N 12:48:17 54° WNW 12:52:30 10° SSW
USA 229 DEB 4.2 12:40:40 10° NNW 12:48:25 79° WSW 12:56:21 10° SSE
USA 229 4.2 12:40:45 10° NNW 12:48:31 80° WSW 12:56:26 10° SSE
Cosmos 1980 Rocket 2.1 12:44:51 10° N 12:50:27 70° ENE 12:56:00 10° SSE
NOSS 3-3 (A) 4.0 12:45:53 10° SW 12:51:12 65° WNW 12:56:51 10° NNE
NOSS 3-3 (C) 4.0 12:45:58 10° SSW 12:51:17 66° WNW 12:56:58 10° NNE
PSLV R/B 3.9 12:47:45 10° S 12:51:24 70° W 12:55:03 10° NNW
DMSP B5D2-2 4.4 12:46:59 10° NNE 12:51:58 45° E 12:56:57 10° S
Aurora 2 Rocket 3.0 12:49:51 10° WNW 12:54:24 72° NNE 13:00:34 12° ESE
ARGOS 3.4 12:51:26 10° SSE 12:56:34 45° ENE 13:01:40 10° N
Cosmos 773 Rocket 4.4 12:53:39 10° S 12:58:36 42° E 13:02:53 14° NE
CZ-4 R/B 3.6 12:56:27 10° ESE 12:56:37 11° ESE 12:56:37 11° ESE
Cosmos 2369 4.1 12:53:36 10° NNW 12:59:16 69° WSW 13:04:54 10° S
H-2A R/B 2.1 12:54:25 10° S 12:59:43 86° W 13:04:51 10° NNW
H-2A R/B 3.1 12:57:23 18° NE 12:59:43 27° E 13:03:28 10° SSE
SJ-11-01 4.5 12:55:37 10° SSE 13:00:11 49° ENE 13:04:44 10° N
Cosmos 1515 4.1 12:56:50 10° SSE 13:00:20 38° E 13:02:47 17° NNE
Cosmos 1515 Rocket 4.4 12:57:37 10° SSW 13:01:58 54° W 13:06:18 10° N
Cosmos 2228 Rocket 3.5 12:58:34 10° SSE 13:02:38 38° E 13:05:41 16° NNE
CZ-4C R/B 3.4 13:02:02 10° N 13:05:21 60° WNW 13:08:45 10° SSW
SL-16 R/B 3.8 13:02:12 10° NNE 13:03:45 15° NE 13:03:45 15° NE
USA 32 3.9 13:01:09 10° S 13:06:21 81° E 13:11:34 10° N
GPS 2-15 Rocket1 3.0 13:04:17 10° WNW 13:08:58 83° N 13:11:38 25° E
BREEZE-M DEB (TANK) 3.2 13:06:30 10° WSW 13:10:47 40° NW 13:12:27 20° NNE
DMSP B5D1-3 4.4 13:09:26 10° NNE 13:14:32 75° ESE 13:19:37 10° S
YAOGAN 3 4.4 13:12:30 10° SSE 13:16:51 79° ENE 13:21:11 10° N
BREEZE M DEB (TANK) 3.4 13:08:42 10° NW 13:18:07 42° NE 13:19:28 33° ENE
Cosmos 1125 Rocket 4.0 13:16:20 10° N 13:21:10 37° ENE 13:26:00 10° SE
CZ-4 R/B 4.3 13:17:49 10° SSE 13:21:56 89° ENE 13:26:03 10° N
Cosmos 2278 3.7 13:16:33 10° NNW 13:22:13 84° WSW 13:27:52 10° SSE
GPS 2-04 Rocket1 4.3 13:23:35 10° NNW 13:25:53 21° N 13:25:53 21° N
Cosmos 1356 Rocket 3.4 13:23:27 10° N 13:27:40 64° E 13:31:54 10° SSE
Cosmos 1544 3.0 13:24:09 10° N 13:27:45 80° W 13:31:23 10° S
SL-08 RB Rocket 3.6 13:23:53 10° SSE 13:28:31 72° ENE 13:33:07 10° N
YAOGAN 1 3.0 13:24:44 10° SSE 13:28:01 39° ESE 13:28:01 39° ESE
CZ-4C R/B 3.1 13:22:17 10° NNW 13:30:30 68° ENE 13:39:11 10° SSE
Hubble Space Telescope 3.3 13:32:26 10° SSE 13:33:06 10° SSE 13:33:06 10° SSE
CZ-4B R/B 3.8 13:28:16 10° S 13:33:38 57° WSW 13:38:55 10° NNW
Cosmos 2266 Rocket 4.2 13:30:52 10° N 13:37:16 77° W 13:43:38 10° S
Okean 1 3.5 13:47:10 10° S 13:50:57 68° WSW 13:50:57 68° WSW
Okean O Rocket 3.4 13:51:04 10° SSW 13:54:59 31° W 13:58:56 10° NW
SWIFT 3.6 13:53:06 10° W 13:56:58 35° SSW 13:57:08 35° SSW
GPS 2-12 Rocket1 3.6 13:56:10 10° W 13:59:41 52° WNW 13:59:41 52° WNW
Delta 198 4.3 13:58:30 10° WNW 14:05:03 76° NNE 14:05:22 74° NE
DELTA-4 R/B 4.0 14:02:58 10° WSW 14:08:29 34° S 14:08:29 34° S
ATLAS 5 CENTAUR R/B 2.4 14:13:23 10° W 14:19:06 41° W 14:19:06 41° W
USA 234 4.0 14:31:28 41° NNW 14:31:28 41° NNW 14:35:28 10° NW
CZ-3C R/B 3.4 14:25:56 10° SSW 15:18:20 - ENE 23:00:49 10° ESE
CZ-4 R/B 4.0 14:30:32 10° SSW 14:32:36 19° WSW 14:32:36 19° WSW
ATLAS 3B CENTAUR R/B 4.4 14:45:29 10° WNW 15:04:02 62° N 15:04:02 62° N
Cosmos 2082 Rocket 4.4 22:03:57 18° SSE 22:03:57 18° SSE 22:05:22 10° SSE
Cosmos 2034 Rocket 3.9 22:43:39 81° NNE 22:43:56 85° E 22:50:17 10° S
Milstar 3 4.4 22:42:21 44° W 22:48:10 63° SW 22:58:06 10° SE
Cosmos 1814 Rocket 4.2 22:52:14 62° SSE 22:52:14 62° SSE 22:56:30 10° SSE
ASTRO E2 4.4 22:56:13 28° ENE 22:56:13 28° ENE 22:58:09 10° ENE
IUS-1 SRM-2 4.4 22:55:10 22° NE 22:55:10 22° NE 22:59:41 10° ENE
Cosmos 1570 Rocket 3.9 22:56:02 83° ENE 22:56:04 83° ENE 23:01:22 10° SSE
NATO 3D Rocket 3.8 22:58:34 55° NNE 22:58:34 55° NNE 23:04:29 10° E
ATLAS 3B R/B 2.6 22:52:36 10° SSW 22:59:00 76° ESE 23:05:31 10° NNE
YAOGAN 6 4.2 22:59:46 24° NE 23:01:12 34° E 23:04:27 10° SSE
SJ 16-02 2.8 23:00:39 10° SSE 23:04:41 37° E 23:08:43 10° NNE
Meteor 2-13 Rocket 4.3 22:58:55 10° SSW 23:04:58 66° W 23:06:37 47° NNW
GPS 2-17 Rocket1 3.2 23:11:03 59° S 23:11:22 61° SSE 23:15:46 10° E
Delta 168 3.7 23:17:04 48° NNW 23:17:40 50° N 23:24:23 10° ENE
SJ-12 4.1 23:17:13 10° NNE 23:21:21 71° ESE 23:25:26 10° S
Cosmos 1241 Rocket 4.4 23:18:33 26° NNW 23:22:16 83° ENE 23:28:30 10° SSE
Cosmos 1777 Rocket 3.9 23:17:57 10° S 23:23:08 85° ESE 23:28:21 10° NNE
Meteor 1-26 Rocket 4.1 23:19:52 21° N 23:23:48 78° W 23:29:20 10° S
APEX 3.8 23:28:33 40° SW 23:28:33 40° SW 23:32:12 10° S
Cosmos 921 Rocket 3.1 23:27:05 23° N 23:29:51 80° ENE 23:34:21 10° SSE
Gbstr 26 Del rocket 2.8 23:31:55 45° NW 23:33:09 84° SW 23:37:52 10° SE
Cosmos 2208 Rocket 4.3 23:32:50 34° NW 23:34:36 47° W 23:39:38 10° S
H-2A R/B 2.6 23:34:03 10° N 23:37:47 64° WNW 23:41:34 10° SSW
SL-4 R/B 4.1 23:43:20 10° N 23:43:20 10° N 23:43:25 10° N
BREEZE-M R/B 4.3 23:41:21 18° SW 23:41:34 18° SW 23:44:37 10° S
Hubble Space Telescope 1.3 23:40:31 33° WSW 23:41:50 46° SSW 23:45:46 10° SE
Cosmos 1867 4.0 23:40:16 29° WNW 23:42:18 41° WSW 23:47:21 10° S
OAO 3 Rocket 3.2 23:41:04 32° WNW 23:43:20 71° SW 23:48:16 10° SE
MOS 1-B Rocket 4.4 23:37:38 10° SSE 23:44:28 70° ENE 23:50:23 10° N
Meteor 1-31 Rocket 2.6 23:42:55 10° N 23:46:49 73° WNW 23:50:43 10° SSW
Cosmos 1151 Rocket 2.9 23:42:56 10° N 23:47:18 84° W 23:51:38 10° S
TSX-5 3.7 23:50:44 13° NNW 23:54:37 76° WSW 23:58:11 10° SSE
